User: anonymous   Login
Location: Unspecified
(0.0000°N, 0.0000°E)
Time: 09:00:05
(UTC+00:00)
Language:

Iridium 42 - Orbit

View from above orbital plane
View from above orbital plane
View from above satellite
View from above satellite

Ground track
Ground track

The orbit data is extracted from the following two-line orbital elements,

1 25077U 97077A   20188.81229036 +.00000048 +00000-0 +99105-5 0  9992
2 25077 086.3972 275.3842 0001753 099.2906 260.8488 14.34598403182121
Epoch (UTC): 06 July 2020 19:29:41
Eccentricity: 0.0001753
inclination: 86.3972°
perigee height: 775 km
apogee height: 777 km
right ascension of ascending node: 275.3842°
argument of perigee: 99.2906°
revolutions per day: 14.34598403
mean anomaly at epoch: 260.8488°
orbit number at epoch: 18212

The dashed part of the orbit path shows where the satellite is in the earth's shadow,  

DLR